Location: Arboyeti
(42.1122°N, 44.6017°E)
Time: 09:27:25
(UTC+00:00)

Cosmos 1190 Rocket - Pass Details

Date: 19 April 2021
Orbit: 757 x 779 km, 74.1° (Epoch: 05 May)

Event Time Altitude Azimuth Distance (km) Brightness Sun altitude
Exits shadow 17:49:39 43° 150° (SSE) 1,063 4.3 -20.8°
Maximum altitude 17:50:54 54° 105° (ESE) 924 4.0 -21.0°
Drops below altitude 10° 17:55:59 10° 29° (NNE) 2,303 6.6 -21.8°
Sets 17:58:24 0° 25° (NNE) 3,231 7.4 -22.1°
